Location: Laverne
(36.7100°N, 99.8930°W)
Time: 02:34:33
(UTC-05:00)

Daily predictions for brighter satellites

Satellite Brightness Start Highest point End
(mag) Time Altitude Azimuth Time Altitude Azimuth Time Altitude Azimuth
Lacrosse 5 4.4 00:13:06 10° WNW 00:16:30 18° NNW 00:19:55 10° NNE
H-2A R/B 4.4 00:22:12 16° WNW 00:22:12 16° WNW 00:24:14 10° NW
Cosmos 2278 Rocket 3.8 00:28:37 10° NNW 00:31:25 30° N 00:31:25 30° N
NOSS 3-2 (A) 4.4 00:31:48 10° NW 00:37:47 58° NW 00:37:47 58° NW
Cosmos 2219 Rocket 4.1 00:56:05 25° NNW 00:56:05 25° NNW 00:59:20 10° N
SL-16 R/B 4.5 01:03:29 18° NNE 01:03:29 18° NNE 01:04:48 10° NNE
Cosmos 2333 Rocket 4.3 01:14:46 22° NNW 01:14:46 22° NNW 01:17:41 10° N
Cosmos 2237 Rocket 4.4 01:38:56 19° NNW 01:38:56 19° NNW 01:41:23 10° N
CENTAUR R/B 3.8 01:46:27 10° NNW 01:51:45 47° NW 01:51:45 47° NW
USA 215 4.4 02:00:30 38° NNW 02:00:30 38° NNW 02:04:35 10° NW
Cosmos 1943 Rocket 3.8 03:10:00 10° NNW 03:12:38 28° N 03:12:38 28° N
SL-16 R/B 3.6 03:15:36 38° E 03:16:08 38° ENE 03:21:47 10° N
Resurs 1-4 Rocket 3.7 03:16:13 10° NNE 03:19:26 29° ENE 03:19:26 29° ENE
Cosmos 2369 Rocket 4.3 03:21:58 10° NNW 03:23:26 18° NW 03:23:26 18° NW
CZ-2D R/B 3.4 03:26:31 10° NNE 03:30:15 36° ENE 03:30:15 36° ENE
Cosmos 1934 Rocket 4.5 03:34:39 53° ENE 03:34:39 53° ENE 03:39:41 10° NNE
ARIANE 5 R/B 3.3 03:48:21 10° NNE 03:52:31 50° NE 03:52:31 50° NE
ADEOS Rocket 4.0 04:05:08 10° N 04:08:42 31° NW 04:08:42 31° NW
ADEOS II 4.5 04:08:08 10° NE 04:11:28 17° E 04:14:48 10° SE
Cosmos 2221 3.9 04:17:54 33° N 04:17:54 33° N 04:20:22 10° N
IRS-1D 3.9 04:12:50 10° N 04:17:04 57° NNW 04:17:04 57° NNW
Cosmos 1805 Rocket 4.4 04:15:57 10° N 04:19:25 48° NNE 04:19:25 48° NNE
ADEOS 3.5 04:21:13 10° N 04:26:04 73° NNW 04:26:04 73° NNW
COSMOS 2406 3.1 04:29:10 73° WNW 04:29:10 73° WNW 04:34:51 10° NNE
Cosmos 372 Rocket 4.3 04:26:47 10° NNW 04:30:51 54° NW 04:30:51 54° NW
Cosmos 2098 Rocket 4.5 04:32:57 40° WNW 04:32:57 40° WNW 04:37:09 10° N
Cosmos 2285 Rocket 3.9 04:31:44 67° SSW 04:32:41 84° WNW 04:39:06 10° NNE
Okean O Rocket 4.3 04:34:50 10° ENE 04:37:27 15° E 04:40:02 10° SE
Cosmos 1300 3.0 04:47:35 63° NE 04:47:35 63° NE 04:50:55 10° N
MOS 1 Rocket 4.2 04:43:39 10° N 04:46:38 33° NW 04:46:38 33° NW
Cosmos 2173 Rocket 4.3 04:47:05 24° SSE 04:51:00 64° E 04:57:17 10° NNE
Sich 1 2.8 04:50:12 10° N 04:54:35 82° W 04:54:41 81° WSW
Meteor 2-17 Rocket 4.4 04:52:13 36° S 04:54:55 86° E 05:01:03 10° N
CZ-2D R/B 3.8 04:54:35 10° N 04:57:57 50° NW 04:57:57 50° NW
SL-16 R/B 3.4 05:00:43 29° W 05:00:43 29° W 05:05:08 10° NW
Resurs 1-4 Rocket 3.3 04:56:20 10° NNW 05:00:30 26° WNW 05:00:30 26° WNW
Cosmos 1315 Rocket 2.8 05:00:33 10° NNW 05:04:13 63° WNW 05:04:13 63° WNW
Cosmos 2228 Rocket 3.0 05:08:44 40° S 05:10:20 86° E 05:14:48 10° N
Cosmos 1470 Rocket 4.1 05:06:31 10° N 05:10:46 57° E 05:15:01 10° SSE
CZ-2D R/B 3.5 05:07:20 10° NNW 05:11:20 22° WNW 05:11:34 22° WNW
Cosmos 1538 Rocket 4.0 05:11:02 41° SW 05:12:51 69° WNW 05:18:13 10° NNE
Cosmos 1459 Rocket 3.8 05:10:07 25° S 05:13:50 82° W 05:19:57 10° N
PSLV R/B 4.4 05:15:14 31° NNW 05:16:00 37° N 05:19:03 10° ENE
Cosmos 1515 Rocket 3.5 05:15:04 32° S 05:17:05 84° E 05:21:31 10° N
Centaur D AC-29 3.7 05:15:46 25° SSW 05:18:52 31° S 05:46:03 10° SE
Tiangong 2 1.8 05:19:05 43° SSE 05:19:06 43° SSE 05:22:11 10° ENE
Cosmos 2082 Rocket 3.0 05:16:25 13° S 05:21:10 47° ESE 05:26:33 10° NE
Cosmos 923 Rocket 4.4 05:17:53 18° S 05:21:41 61° ESE 05:26:51 10° NNE
Cosmos 1633 Rocket 3.3 05:18:52 10° NNW 05:23:03 46° W 05:23:50 41° SW
PSLV R/B 4.0 05:20:05 10° NNE 05:24:14 74° ESE 05:26:50 22° S
OE (NEXTSAT) 4.3 05:24:56 55° WSW 05:25:37 80° NNW 05:29:12 10° ENE
USA 229 DEB 4.0 05:19:33 10° NW 05:26:23 47° WSW 05:33:19 10° S
USA 229 4.0 05:19:39 10° NW 05:26:29 47° WSW 05:33:26 10° S
Meteor 2-3 Rocket 4.2 05:24:05 10° N 05:29:41 63° E 05:35:19 10° SSE
Lacrosse 5 3.7 05:26:57 10° NNW 05:31:29 32° NE 05:36:00 10° ESE
NOSS 3-1 (A) 4.4 05:24:01 10° NNW 05:31:47 74° ENE 05:40:17 10° SE
ARIANE 5 R/B 4.3 05:29:01 10° NNW 05:32:06 16° WNW 05:32:51 16° WNW
Cosmos 2061 Rocket 4.1 05:28:47 18° SSW 05:33:39 65° W 05:40:03 10° N
CZ-4B R/B 3.2 05:29:21 10° NNE 05:33:51 84° ESE 05:37:40 15° S
Cosmos 1726 4.1 05:38:31 15° WNW 05:38:31 15° WNW 05:40:06 10° NW
CZ-4B R/B 3.5 05:35:17 10° NNE 05:40:43 65° ESE 05:46:02 10° S
Cosmos 1680 Rocket 3.8 05:35:40 11° S 05:40:45 71° ESE 05:46:03 10° NNE
SL-27 R/B 4.4 05:41:53 14° WNW 05:41:53 14° WNW 05:43:38 10° NNW
Cosmos 1328 Rocket 4.3 05:42:22 26° WSW 05:43:39 32° WNW 05:47:33 10° NNW
Landsat 4 4.5 05:42:41 10° SSE 05:46:20 54° ENE 05:50:00 10° N
Cosmos 1892 2.6 05:43:04 10° N 05:46:55 87° W 05:50:46 10° S
Cosmos 2112 Rocket 4.3 05:42:03 10° S 05:47:18 69° ESE 05:52:37 10° NNE
Shenzhou-11 Module 2.0 05:46:46 33° W 05:47:59 71° NNW 05:51:04 10° ENE
PAYLOAD B 4.3 05:42:49 10° NNE 05:48:27 88° E 05:54:02 10° SSW
Hubble Space Telescope 2.1 05:48:18 20° SSW 05:49:52 25° S 05:53:16 10° ESE
Cosmos 2369 3.8 05:45:12 10° NNW 05:50:53 84° ENE 05:56:32 10° SSE
ADEOS II 2.3 05:46:22 10° N 05:51:27 51° WNW 05:55:48 14° SW
Meteor 1-27 4.2 05:46:50 10° SSW 05:52:28 65° W 05:58:03 10° N
Cosmos 2016 Rocket 4.1 05:47:35 11° SSW 05:53:24 55° W 05:59:24 10° N
OAO 2 Rocket 4.3 05:50:54 17° SW 05:54:03 35° SSE 05:58:35 10° E
PSLV R/B 3.6 05:51:15 10° N 05:55:32 59° WNW 05:59:31 11° SSW
USA 234 3.7 05:52:08 10° NE 05:58:37 60° SE 06:05:02 10° SSW
Cosmos 1864 Rocket 4.5 05:54:33 10° SSW 06:00:49 72° W 06:07:03 10° N
NOSS 3-1 (C) 4.2 05:53:45 10° NW 06:01:24 60° WSW 06:09:42 10° SSE
Cosmos 1825 4.2 05:58:38 10° NNE 06:02:04 31° ENE 06:05:29 10° SE
Abrixas 2.4 06:00:52 10° NW 06:03:29 65° NE 06:06:05 10° ESE
Kakehashi 4.3 06:00:13 16° WSW 06:04:48 53° S 06:14:31 10° E
Cosmos 1933 Rocket 4.2 06:00:48 10° NNW 06:04:54 36° W 06:08:58 10° SSW
Cosmos 1656 3.8 05:59:17 10° NNW 06:05:01 85° ENE 06:10:42 10° SSE
COSMOS 2487 2.7 06:02:36 15° SW 06:05:18 49° WNW 06:08:45 10° N
Cosmos 1725 Rocket 4.0 05:59:57 10° SSW 06:06:04 64° W 06:12:13 10° N
Okean-O 4.1 06:06:19 10° NNE 06:10:29 39° E 06:14:38 10° SSE
BREEZE-M DEB (TANK) 4.4 06:06:36 10° NW 06:10:48 59° NNE 06:24:39 10° ESE
BREEZE M DEB (TANK) 4.3 06:06:51 10° WNW 06:11:26 55° SW 06:30:10 10° SE
Okean O Rocket 2.1 06:09:49 10° N 06:13:59 41° WNW 06:18:05 10° SW
Cosmos 1408 3.4 06:14:29 10° N 06:18:03 55° E 06:21:34 10° SSE
Cosmos 1151 Rocket 4.3 06:15:15 12° SW 06:18:20 23° WNW 06:21:47 10° NNW
Cosmos 1833 Rocket 2.9 06:14:38 10° SW 06:20:08 54° WNW 06:25:41 10° NNE
Cosmos 1707 Rocket 3.6 06:16:57 10° S 06:21:22 87° E 06:25:48 10° N
Meteor 2-12 Rocket 4.4 06:16:45 10° S 06:22:47 78° W 06:28:51 10° N
Tsikada Rocket 4.2 06:23:54 10° NNW 06:29:59 53° W 06:36:08 10° SSW
ATLAS 5 CENTAUR R/B 4.4 06:30:11 10° SSE 06:32:58 16° ESE 06:35:51 10° ENE
Cosmos 1980 Rocket 2.9 06:31:22 10° NNW 06:36:56 62° ENE 06:42:28 10° SSE
H-2A R/B 4.0 06:47:04 10° WSW 07:22:41 53° S 07:27:38 10° ESE
